EHI
3 3 3 2 1 0 0 0 0 0 0 0 0 0 0 0 0 0 0 2 8 11 11 10 8 7 5 5 6 7 9 8 6 5 4 3 1 0 0 0 0 0 0
3 3 2 2 1 0 0 0 0 0 0 0 0 0 0 0 0 0 0 1 4 7 8 7 7 5 4 4 5 7 8 7 6 6 5 5 3 1 0 0 0 0 0
3 2 1 1 0 0 0 0 0 0 0 0 0 0 0 0 0 0 0 0 1 3 4 5 5 4 3 2 3 5 6 5 4 5 6 6 5 3 1 0 0 0 0
2 1 0 0 0 0 0 0 0 0 0 0 0 0 0 0 0 0 0 0 0 1 3 4 5 5 4 2 1 3 4 4 3 4 5 5 4 3 2 1 0 0 0
2 1 0 0 0 0 0 0 0 0 0 0 0 0 0 0 0 0 0 0 0 1 2 3 3 4 4 2 1 1 2 2 2 2 3 3 1 1 1 1 0 0 0
1 0 0 0 0 0 0 0 0 0 0 0 0 0 0 0 0 0 0 0 0 0 1 1 1 2 2 1 0 0 0 1 1 1 1 1 0 0 0 0 0 0 0
1 0 0 0 0 0 0 0 0 0 0 0 0 0 0 0 0 0 0 0 0 0 0 0 0 0 0 0 0 0 0 0 1 0 0 0 0 0 0 0 0 0 0
1 0 0 0 0 0 0 0 1 0 0 0 0 0 0 0 0 0 0 0 0 0 0 0 0 0 0 0 0 0 0 0 0 0 0 0 0 0 0 0 0 0 0
0 0 0 0 0 0 0 0 0 0 0 0 0 0 0 0 0 0 0 0 0 0 0 0 0 0 0 0 0 0 0 0 0 0 0 0 0 0 0 0 0 0 0
1 1 0 0 0 0 0 0 0 0 0 0 0 0 0 0 0 0 0 0 0 0 0 0 0 0 0 0 0 0 0 0 0 0 0 0 0 0 0 0 0 0 0
2 2 1 0 0 0 0 0 0 0 0 0 0 0 0 0 0 0 0 0 0 0 0 0 0 0 0 0 0 0 0 0 0 0 0 0 0 0 0 0 0 0 0
2 3 2 1 0 0 0 0 0 0 0 0 0 0 0 0 0 0 0 0 0 0 0 0 0 0 0 0 0 0 0 0 0 0 0 0 0 0 0 0 0 0 0
2 3 3 2 0 0 0 0 0 0 0 0 0 0 0 0 0 0 0 0 0 0 0 0 0 0 0 0 0 0 0 0 0 0 0 0 0 0 0 0 0 0 0
2 3 4 3 1 0 0 0 0 0 0 0 0 0 0 0 0 0 0 0 0 0 0 0 0 0 0 0 0 0 0 0 0 0 0 0 0 0 0 0 0 0 0
1 1 2 1 0 0 0 0 0 0 0 0 0 0 0 0 0 0 0 0 0 0 0 0 0 0 0 0 0 0 0 0 0 0 0 0 0 0 0 0 0 0 0
0 0 0 0 0 0 0 0 0 0 0 0 0 0 0 0 0 0 0 0 0 0 0 0 0 0 0 0 0 0 0 0 0 0 0 0 0 0 0 0 0 0 0
0 0 0 0 0 0 0 0 0 0 0 0 0 0 0 0 0 0 0 0 0 0 0 0 0 0 0 0 0 0 0 0 0 0 0 0 0 0 0 0 0 0 0
0 0 0 0 0 0 0 0 0 0 0 0 0 0 0 0 0 0 0 0 0 0 0 0 0 0 0 0 0 0 0 0 0 0 0 0 0 0 0 0 0 0 0
0 0 0 0 0 0 0 0 0 0 0 0 0 0 0 0 0 0 0 0 0 0 0 0 0 0 0 0 0 0 0 0 0 0 0 0 0 0 0 0 0 0 0
0 0 0 0 0 0 0 0 0 0 0 0 0 0 0 0 0 0 0 0 0 0 0 0 0 0 0 0 0 0 0 0 0 0 0 0 0 0 0 0 0 0 0
0 0 0 0 0 0 0 0 0 0 0 0 0 0 0 0 0 0 0 0 0 0 0 0 0 0 0 0 0 0 0 0 0 0 0 0 0 0 0 0 0 0 0
0 0 0 0 0 0 0 0 0 0 0 0 0 0 0 0 0 0 0 0 0 0 0 0 0 0 0 0 0 0 0 0 0 0 0 0 0 0 0 0 0 0 0
0 0 0 0 0 0 0 0 0 0 0 0 0 0 0 0 0 0 0 0 0 0 0 0 0 0 0 0 0 0 0 0 0 0 0 0 0 0 0 0 0 0 0
0 0 0 0 0 0 0 0 0 0 0 0 0 0 0 0 0 0 0 0 0 0 0 0 0 0 0 0 0 0 0 0 0 0 0 0 0 0 0 0 0 0 0
0 0 0 0 0 0 0 0 0 0 0 0 0 0 0 0 0 0 0 0 0 0 0 0 0 0 0 0 0 0 0 0 0 0 0 0 0 0 0 0 0 0 0
0 0 0 0 0 0 0 0 0 0 0 0 0 0 0 0 0 0 0 0 0 0 0 0 0 0 0 0 0 0 0 0 0 0 0 0 0 0 0 0 0 0 0
Wind_Speed
2 2 1 1 1 1 1 1 2 2 2 2 2 2 2 2 3 2 2 5 6 7 8 8 8 8 8 7 8 8 9 9 8 8 8 7 7 7 6 6 6 6 6
2 2 1 1 1 1 2 2 2 2 1 2 2 2 3 2 3 3 2 3 6 6 7 8 8 8 8 8 7 8 8 8 8 8 8 7 7 6 6 6 6 6 6
2 2 2 1 1 1 1 1 1 1 1 1 1 2 2 2 2 3 3 2 3 5 7 8 8 8 8 8 8 7 8 8 8 8 8 7 7 7 6 6 6 7 6
2 2 2 1 1 1 1 1 1 1 1 1 1 1 1 1 2 3 2 2 2 2 4 6 7 7 7 7 7 7 7 7 7 8 8 8 8 7 7 6 6 7 7
2 2 2 1 1 1 1 1 1 2 1 1 1 1 1 1 2 2 2 3 3 3 3 5 7 7 6 6 6 6 7 6 6 7 7 8 8 8 8 8 7 7 8
2 2 2 1 1 1 1 1 1 1 2 1 1 0 1 1 1 2 3 2 2 3 3 3 3 4 7 7 6 7 7 6 6 6 6 6 7 7 8 8 8 8 8
2 2 1 1 1 1 1 2 2 2 1 1 2 1 2 1 1 1 1 2 2 2 3 3 3 2 3 6 6 6 6 6 5 5 6 6 6 6 7 8 9 9 9
1 2 2 1 1 2 1 2 2 2 0 1 2 2 1 3 2 0 1 2 2 1 2 3 3 3 2 2 3 6 6 6 5 5 5 5 6 6 6 7 8 9 9
1 1 2 2 1 2 2 1 2 3 1 0 1 3 2 2 1 2 1 0 1 1 1 2 3 3 4 3 2 4 5 5 5 5 5 5 5 6 7 7 7 7 8
1 1 2 2 2 1 1 1 2 2 3 1 0 0 2 3 2 1 2 1 1 1 1 2 2 3 4 3 3 5 5 5 5 5 5 5 5 5 6 6 6 6 7
0 1 1 2 2 1 2 1 2 2 2 2 1 1 1 1 2 2 1 2 2 1 1 2 2 2 3 3 3 5 6 5 5 5 5 5 6 6 7 7 7 6 6
0 0 1 1 2 2 2 2 2 3 2 2 2 1 2 2 1 2 1 1 1 2 1 1 1 2 2 3 5 6 6 6 6 5 5 5 6 6 7 7 7 8 7
0 1 1 1 1 1 2 2 2 2 2 3 2 1 2 2 2 2 2 1 1 2 2 1 2 2 2 2 3 6 6 6 6 7 6 6 6 6 6 6 7 7 7
2 2 2 2 2 1 1 2 2 2 2 2 2 2 1 1 2 2 3 3 1 1 1 2 1 2 2 2 4 6 4 7 7 7 7 7 6 6 6 6 6 6 6
1 1 1 1 1 2 2 2 2 1 2 2 2 2 1 1 1 1 2 3 3 1 2 2 2 2 2 2 4 3 3 6 6 7 7 8 7 7 7 6 6 6 6
1 1 1 1 1 1 1 2 2 1 2 1 1 2 1 1 1 1 1 2 2 3 2 2 2 2 2 2 3 3 4 5 6 6 7 7 7 7 6 7 7 6 6
1 2 2 1 1 1 1 2 2 2 2 1 1 2 1 1 1 1 1 1 1 2 2 2 2 1 1 1 2 2 2 3 4 7 7 7 7 7 7 7 7 7 7
2 2 2 2 2 2 2 2 3 2 3 3 2 2 2 1 1 1 1 1 1 2 3 2 2 1 2 2 2 2 2 2 3 5 6 6 6 6 7 7 7 8 8
1 1 2 2 2 2 2 3 3 3 3 3 3 3 3 2 1 1 1 1 1 1 1 2 2 1 1 1 1 2 2 2 2 3 4 5 6 7 7 7 7 7 7
2 1 2 2 2 2 2 2 3 3 2 2 3 3 3 3 3 2 2 2 2 1 1 1 2 2 2 1 0 1 2 2 2 2 2 2 3 5 6 7 7 8 8
2 2 1 1 1 2 2 2 2 3 3 2 2 3 3 3 4 3 2 3 2 2 1 1 2 1 1 1 1 1 2 2 3 1 1 2 1 2 3 5 7 8 9
1 1 1 1 2 2 2 3 3 2 3 3 3 2 3 3 3 4 4 4 5 4 3 2 2 3 3 3 2 2 1 0 2 2 0 2 1 2 3 3 5 7 8
2 2 2 2 2 3 3 3 4 3 2 3 3 3 3 3 3 2 3 3 3 4 6 5 4 4 4 4 3 2 2 2 3 3 0 2 2 2 3 3 5 6 7
2 2 3 3 3 3 4 4 4 3 2 3 4 4 4 3 3 3 2 1 2 3 4 4 5 5 5 4 4 4 4 2 2 2 2 2 2 2 3 3 5 5 5
2 3 2 3 3 3 4 4 3 2 2 3 3 3 4 4 5 4 2 2 2 3 4 4 5 6 6 6 4 2 1 1 2 3 2 2 2 2 2 2 3 4 5
3 3 2 3 3 3 4 5 4 2 2 2 2 2 4 5 5 4 3 3 3 4 3 3 3 3 3 4 5 5 4 3 2 3 2 2 1 0 2 2 2 2 2
Wind_Direction
176 179 181 187 201 194 189 202 208 208 206 188 187 186 187 185 189 187 187 179 179 177 176 177 177 176 180 180 182 183 181 175 172 172 175 178 181 182 184 188 188 187 190
163 163 162 181 200 197 191 188 190 182 186 166 174 178 185 187 180 177 179 177 179 179 179 179 180 180 182 180 179 180 183 180 177 177 177 177 181 186 192 193 195 195 196
154 155 150 171 215 200 171 148 142 135 152 148 162 187 182 182 175 173 180 181 183 184 184 181 179 178 180 182 186 187 189 188 188 186 184 182 185 189 198 202 203 202 201
141 138 142 180 206 153 133 146 149 137 145 148 170 214 184 173 184 180 174 171 177 183 186 175 171 174 182 187 192 192 191 194 197 199 197 195 194 195 198 202 206 207 206
126 129 141 174 145 122 128 183 146 150 151 163 187 201 211 199 194 186 179 177 180 177 180 179 181 179 181 184 189 197 196 195 200 203 205 204 203 203 205 207 210 213 213
113 118 124 124 124 116 106 115 134 141 156 168 173 244 255 233 221 194 192 184 187 188 184 186 182 196 195 192 196 202 199 194 197 203 207 208 207 208 211 212 213 218 219
102 105 116 127 135 140 153 140 131 114 121 129 99 6 338 320 243 206 191 175 186 193 180 182 175 184 199 199 204 210 207 205 208 215 221 224 221 219 220 222 221 222 225
110 129 129 138 138 123 108 120 124 119 107 114 129 111 6 345 333 294 190 188 205 198 192 188 178 179 180 181 202 206 210 213 216 219 227 235 231 223 225 228 231 232 232
141 142 144 131 125 134 143 150 142 135 147 47 128 145 149 210 287 327 294 218 204 190 207 212 192 185 186 185 194 204 202 202 208 216 224 225 224 226 230 232 236 240 241
138 127 133 136 139 135 146 173 148 145 143 156 347 110 153 159 152 287 324 317 261 205 224 215 200 195 191 184 193 193 192 197 208 217 225 226 227 227 229 231 235 240 244
173 147 146 144 151 151 155 152 133 137 149 156 156 139 96 77 103 139 229 316 331 289 239 217 200 197 194 191 200 204 200 202 209 216 222 228 232 233 233 235 236 239 246
254 177 147 146 152 152 166 173 163 153 150 145 145 137 139 134 150 142 164 230 287 289 281 247 217 205 197 195 205 203 205 208 212 219 220 228 234 238 238 238 237 239 244
209 223 183 164 159 166 166 159 147 151 151 148 157 152 150 161 156 145 140 167 247 295 314 299 252 226 215 202 214 209 211 215 219 223 226 232 236 241 244 243 239 241 246
203 207 183 170 171 169 165 153 151 169 151 151 162 156 155 176 157 150 153 145 114 318 314 285 287 245 234 216 220 214 221 223 223 226 227 232 237 241 245 242 239 239 245
197 188 176 165 172 171 169 152 146 167 148 160 171 161 152 171 155 152 146 148 150 174 262 274 273 261 243 230 228 217 223 229 230 229 230 233 236 237 240 239 237 238 242
182 154 170 163 163 162 160 144 143 152 138 157 162 148 152 173 156 151 159 151 151 161 215 253 246 251 252 254 240 224 231 235 235 235 233 234 235 234 237 238 237 238 242
168 161 170 167 171 173 163 143 153 154 151 163 174 159 174 160 148 163 153 151 160 152 191 266 263 259 266 273 292 271 248 236 242 245 243 239 239 238 238 239 238 239 242
182 176 171 166 180 182 174 168 173 170 171 179 190 169 185 163 154 175 163 175 190 184 176 233 268 262 253 243 263 270 273 252 249 251 246 238 237 238 238 239 238 239 240
192 192 175 187 199 190 187 192 185 187 188 190 189 183 192 165 182 203 193 203 215 207 177 196 247 241 251 255 269 292 294 298 276 264 250 246 246 241 239 239 241 243 244
179 191 194 207 214 209 201 196 185 183 184 190 189 190 189 185 194 205 209 223 215 217 208 201 236 252 252 260 163 265 299 304 292 297 294 273 258 247 247 246 246 245 244
185 195 193 218 220 206 205 191 187 182 183 196 212 215 210 207 209 212 212 217 205 207 205 211 230 246 257 255 240 240 254 286 289 277 302 297 279 270 261 255 251 249 247
200 182 195 205 227 233 208 196 189 190 191 195 215 236 234 221 234 244 245 235 210 198 205 209 219 219 240 233 234 221 216 275 291 285 264 288 270 265 261 247 254 251 249
187 192 215 216 228 237 226 214 205 191 196 208 211 221 236 225 218 239 264 269 253 232 209 195 207 223 224 220 208 228 221 213 238 246 179 280 282 274 270 270 263 251 249
195 210 229 228 228 246 239 229 221 206 211 226 222 218 218 225 221 216 228 246 266 259 240 216 214 227 226 221 206 204 210 233 271 259 183 235 265 265 277 280 270 256 258
213 220 225 223 225 253 243 226 217 200 217 236 234 223 209 219 230 214 193 228 276 287 279 251 238 239 237 233 212 172 180 171 271 274 217 198 249 277 285 279 274 263 263
218 222 235 231 227 246 250 232 206 190 210 234 248 234 221 219 225 211 197 207 241 261 284 308 294 282 253 240 216 193 190 187 213 262 247 188 230 234 295 281 277 276 267